Location: Clanezzo
(45.7500°N, 9.6000°E)
Time: 14:00:19
(UTC+00:00)

Envisat - Pass Details

Date: 26 January 2022
Orbit: 764 x 765 km, 98.2° (Epoch: 17 May)

Event Time Altitude Azimuth Distance (km) Brightness Sun altitude
Rises 05:57:28 0° 358° (N) 3,242 6.0 -9.3°
Reaches altitude 10° 06:00:41 10° 337° (NNW) 2,311 5.1 -8.8°
Maximum altitude 06:03:33 15° 302° (WNW) 1,960 4.5 -8.3°
Drops below altitude 10° 06:06:24 10° 267° (W) 2,303 4.9 -7.9°
Sets 06:09:37 0° 246° (WSW) 3,225 5.8 -7.3°
